Flag for American Samoa

Past Weather in Pago Pago, American Samoa — Yesterday and Last 2 Weeks

Now
76 °F

Mostly cloudy.


Feels Like: 76 °F
Forecast: 84 / 80 °F
Wind: 9 mph from South

Location: Pago Pago / Int. Airp.

Current Time: Jul 15, 2020 at 3:53:39 pm

Latest Report: Jul 15, 2020 at 2:50 pm


Visibility: 12 mi

Pressure: 29.84 "Hg

Humidity: 90%

Dew Point: 73 °F

Location of Pago PagoLocation

Past Weather in Pago Pago — Graph

°F

Pago Pago Temperature Yesterday

Maximum temperature yesterday: 82 °F (at 1:50 pm)
Minimum temperature yesterday: 78 °F (at 2:50 pm)
Average temperature yesterday: 80 °F

High & Low Weather Summary for the Past Weeks

 TemperatureHumidityPressure
High88 °F (Jul 1, 10:50 am)95% (Jul 15, 10:50 am)29.98 "Hg (Jul 15, 10:50 am)
Low72 °F (Jul 15, 9:50 am)69% (Jul 7, 1:50 pm)29.75 "Hg (Jul 14, 3:50 pm)
Average82 °F84%29.87 "Hg
* Reported Jun 30 1:50 pm — Jul 15 1:50 pm, Pago Pago. Weather by CustomWeather, © 2020

Note: Actual official high and low records may vary slightly from our data, if they occured in-between our weather recording intervals... More about our weather records

Pago Pago Weather History for the Previous 24 Hours

Scroll right to see more
 ConditionsComfort  
Time TempWeatherWind HumidityBarometerVisibility
1:50 pm
Wed, Jul 15
75 °FSprinkles. Mostly cloudy.5 mph92%29.85 "Hg6 mi
12:50 pm74 °FSprinkles. Mostly cloudy.3 mph94%29.88 "Hg6 mi
11:50 am73 °FSprinkles. Mostly cloudy.3 mph95%29.91 "Hg6 mi
10:50 am72 °FSprinkles. Mostly cloudy.5 mph95%29.92 "Hg5 mi
9:50 am72 °FLots of rain. Mostly cloudy.No wind93%29.95 "Hg3 mi
8:50 am73 °FLots of rain. Mostly cloudy.8 mph91%29.93 "Hg4 mi
8:20 am73 °FLots of rain. Mostly cloudy.8 mph94%29.91 "Hg2 mi
7:50 am80 °FSprinkles. Cloudy.16 mph89%29.87 "Hg11 mi
7:03 am79 °FThunderstorms. Cloudy.18 mph89%29.86 "Hg11 mi
6:14 am79 °FThunderstorms. Overcast.16 mph89%29.83 "Hg10 mi
5:50 am79 °FOvercast.18 mph90%29.83 "Hg10 mi
4:50 am79 °FOvercast.14 mph90%29.80 "Hg10 mi
3:50 am80 °FSprinkles. Overcast.20 mph89%29.80 "Hg10 mi
2:50 am80 °FSprinkles. Overcast.18 mph88%29.79 "Hg8 mi
1:50 am80 °FOvercast.22 mph86%29.80 "Hg8 mi
12:50 am80 °FSprinkles. Mostly cloudy.22 mph87%29.82 "Hg8 mi
11:50 pm
Tue, Jul 14
80 °FSprinkles. Mostly cloudy.24 mph85%29.83 "Hg8 mi
10:51 pm81 °FSprinkles. Overcast.21 mph84%29.83 "Hg10 mi
8:50 pm81 °FSprinkles. Overcast.25 mph84%29.83 "Hg10 mi
6:50 pm80 °FSprinkles. Overcast.21 mph87%29.80 "Hg10 mi
5:50 pm78 °FSprinkles. Cloudy.21 mph92%29.78 "Hg10 mi
4:50 pm79 °FSprinkles. Cloudy.21 mph89%29.77 "Hg10 mi
3:50 pm78 °FSprinkles. Mostly cloudy.22 mph91%29.75 "Hg5 mi
Weather by CustomWeather, © 2020

See weather overview